Preston, Minnesota, United States (55965)
Lat: 43.67N, Lon: 92.08W
Wx Zone: MNZ095
Local Info
Past Weather Observations for Today

NOTE: This archive is for the closest National Weather Service station to Preston. Information may differ from the station used for current weather conditions.

Click here for Long-term Archive

Time Weather Temperature Dewpoint Humidity Pressure Winds Precip Visibility
21:13
Clear
64°F / 18°C 57°F / 14°C 78% 30.04 in
(1017 mb)
SSW 8.1 mph
(SSW 13 kph)
- 10SM
20:53
Clear
66°F / 19°C 57°F / 14°C 73% 30.04 in
(1017 mb)
W 8.1 mph
(W 13 kph)
- 10SM
20:32
Clear
64°F / 18°C 55°F / 13°C 73% 30.04 in
(1017 mb)
SSW 6.9 mph
(SSW 11 kph)
- 10SM
20:13
Clear
66°F / 19°C 57°F / 14°C 73% 30.04 in
(1017 mb)
W 6.9 mph
(W 11 kph)
- 10SM
19:53
Clear
68°F / 20°C 55°F / 13°C 64% 30.04 in
(1017 mb)
W 6.9 mph
(W 11 kph)
- 10SM
19:33
Clear
68°F / 20°C 57°F / 14°C 69% 30.04 in
(1017 mb)
W 8.1 mph
(W 13 kph)
- 10SM
19:13
Clear
70°F / 21°C 57°F / 14°C 64% 30.04 in
(1017 mb)
WNW 6.9 mph
(WNW 11 kph)
- 10SM
18:53
Clear
72°F / 22°C 55°F / 13°C 57% 30.04 in
(1017 mb)
NW 5.8 mph
(NW 9 kph)
- 10SM
18:33
Clear
73°F / 23°C 55°F / 13°C 53% 30.04 in
(1017 mb)
NW 8.1 mph
(NW 13 kph)
- 10SM
18:13
Clear
75°F / 24°C 55°F / 13°C 50% 30.04 in
(1017 mb)
NW 10.4 mph
(NW 17 kph)
- 10SM
17:32
Clear
75°F / 24°C 54°F / 12°C 47% 30.04 in
(1017 mb)
NW 12.7 mph
(NW 20 kph)
- 10SM
17:13
Clear
77°F / 25°C 55°F / 13°C 47% 30.04 in
(1017 mb)
NW 12.7 mph
(NW 20 kph)
- 10SM
16:52
Clear
77°F / 25°C 54°F / 12°C 44% 30.04 in
(1017 mb)
NNW 13.8 mph
(NNW 22 kph)
- 10SM
16:33
Clear
77°F / 25°C 54°F / 12°C 44% 30.04 in
(1017 mb)
NW 13.8 mph
(NW 22 kph)
- 10SM
16:13
Clear
77°F / 25°C 54°F / 12°C 44% 30.04 in
(1017 mb)
NW 19.6 mph
(NW 32 kph)
- 10SM
15:53
Clear
77°F / 25°C 54°F / 12°C 44% 30.04 in
(1017 mb)
NW 13.8 mph
(NW 22 kph)
- 10SM
15:33
Clear
77°F / 25°C 54°F / 12°C 44% 30.06 in
(1018 mb)
NW 17.3 mph
(NW 28 kph)
- 10SM
15:13
Clear
77°F / 25°C 54°F / 12°C 44% 30.06 in
(1018 mb)
NW 19.6 mph
(NW 32 kph)
- 10SM
14:53
Clear
77°F / 25°C 52°F / 11°C 42% 30.06 in
(1018 mb)
NW 20.7 mph
(NW 33 kph)
- 10SM
14:33
Clear
77°F / 25°C 54°F / 12°C 44% 30.06 in
(1018 mb)
NW 16.1 mph
(NW 26 kph)
- 10SM
14:13
Clear
77°F / 25°C 54°F / 12°C 44% 30.06 in
(1018 mb)
NW 15 mph
(NW 24 kph)
- 10SM
13:52
Clear
77°F / 25°C 52°F / 11°C 42% 30.06 in
(1018 mb)
NW 19.6 mph
(NW 32 kph)
- 10SM
13:33
Clear
77°F / 25°C 50°F / 10°C 39% 30.06 in
(1018 mb)
NW 13.8 mph
(NW 22 kph)
- 10SM
13:13
Clear
77°F / 25°C 52°F / 11°C 42% 30.09 in
(1019 mb)
NNW 16.1 mph
(NNW 26 kph)
- 10SM
12:52
Clear
75°F / 24°C 50°F / 10°C 41% 30.09 in
(1019 mb)
NW 19.6 mph
(NW 32 kph)
- 10SM
12:33
Clear
75°F / 24°C 50°F / 10°C 41% 30.09 in
(1019 mb)
NW 15 mph
(NW 24 kph)
- 10SM
12:13
Clear
75°F / 24°C 52°F / 11°C 44% 30.09 in
(1019 mb)
NW 16.1 mph
(NW 26 kph)
- 10SM
11:53
Clear
75°F / 24°C 52°F / 11°C 44% 30.09 in
(1019 mb)
NW 17.3 mph
(NW 28 kph)
- 10SM
11:33
Clear
75°F / 24°C 52°F / 11°C 44% 30.09 in
(1019 mb)
NW 18.4 mph
(NW 30 kph)
- 10SM
11:13
Clear
75°F / 24°C 52°F / 11°C 44% 30.09 in
(1019 mb)
NNW 15 mph
(NNW 24 kph)
- 10SM
10:53
Clear
75°F / 24°C 52°F / 11°C 44% 30.09 in
(1019 mb)
NW 16.1 mph
(NW 26 kph)
- 10SM
10:33
Clear
75°F / 24°C 52°F / 11°C 44% 30.12 in
(1020 mb)
NW 13.8 mph
(NW 22 kph)
- 10SM
10:13
Clear
73°F / 23°C 52°F / 11°C 47% 30.12 in
(1020 mb)
NNW 15 mph
(NNW 24 kph)
- 10SM
09:53
Clear
73°F / 23°C 52°F / 11°C 47% 30.12 in
(1020 mb)
NW 12.7 mph
(NW 20 kph)
- 10SM
09:32
Clear
73°F / 23°C 54°F / 12°C 50% 30.12 in
(1020 mb)
NW 13.8 mph
(NW 22 kph)
- 10SM
09:13
Clear
72°F / 22°C 55°F / 13°C 57% 30.12 in
(1020 mb)
NW 11.5 mph
(NW 19 kph)
- 10SM
08:53
Clear
72°F / 22°C 55°F / 13°C 57% 30.12 in
(1020 mb)
NW 11.5 mph
(NW 19 kph)
- 10SM
08:33
Clear
70°F / 21°C 55°F / 13°C 60% 30.12 in
(1020 mb)
NW 10.4 mph
(NW 17 kph)
- 10SM
08:13
Clear
70°F / 21°C 57°F / 14°C 64% 30.12 in
(1020 mb)
NW 11.5 mph
(NW 19 kph)
- 10SM
07:53
Clear
70°F / 21°C 57°F / 14°C 64% 30.09 in
(1019 mb)
NW 11.5 mph
(NW 19 kph)
- 10SM
07:33
Clear
68°F / 20°C 57°F / 14°C 69% 30.09 in
(1019 mb)
NW 11.5 mph
(NW 19 kph)
- 10SM
07:13
Clear
66°F / 19°C 59°F / 15°C 78% 30.09 in
(1019 mb)
NW 8.1 mph
(NW 13 kph)
- 10SM
06:53
Clear
66°F / 19°C 59°F / 15°C 78% 30.09 in
(1019 mb)
NW 9.2 mph
(NW 15 kph)
- 10SM
06:33
Clear
64°F / 18°C 59°F / 15°C 83% 30.09 in
(1019 mb)
NW 8.1 mph
(NW 13 kph)
- 10SM
06:13
Clear
64°F / 18°C 59°F / 15°C 83% 30.09 in
(1019 mb)
WNW 9.2 mph
(WNW 15 kph)
- 10SM
05:53
Clear
63°F / 17°C 57°F / 14°C 83% 30.09 in
(1019 mb)
NW 9.2 mph
(NW 15 kph)
- 10SM
05:33
Clear
63°F / 17°C 57°F / 14°C 83% 30.09 in
(1019 mb)
NW 8.1 mph
(NW 13 kph)
- 10SM
05:13
Clear
63°F / 17°C 57°F / 14°C 83% 30.09 in
(1019 mb)
WNW 9.2 mph
(WNW 15 kph)
- 10SM
04:53
Clear
63°F / 17°C 57°F / 14°C 83% 30.06 in
(1018 mb)
W 9.2 mph
(W 15 kph)
- 10SM
04:33
Clear
63°F / 17°C 57°F / 14°C 83% 30.06 in
(1018 mb)
W 9.2 mph
(W 15 kph)
- 10SM
04:13
Clear
63°F / 17°C 59°F / 15°C 88% 30.06 in
(1018 mb)
W 9.2 mph
(W 15 kph)
- 10SM
03:52
Clear
63°F / 17°C 59°F / 15°C 88% 30.06 in
(1018 mb)
W 8.1 mph
(W 13 kph)
- 10SM
03:33
Clear
63°F / 17°C 59°F / 15°C 88% 30.06 in
(1018 mb)
W 8.1 mph
(W 13 kph)
- 10SM
03:13
Clear
63°F / 17°C 59°F / 15°C 88% 30.06 in
(1018 mb)
W 8.1 mph
(W 13 kph)
- 10SM
02:53
Clear
63°F / 17°C 59°F / 15°C 88% 30.06 in
(1018 mb)
W 6.9 mph
(W 11 kph)
- 10SM
02:33
Clear
64°F / 18°C 59°F / 15°C 83% 30.06 in
(1018 mb)
W 8.1 mph
(W 13 kph)
- 10SM
02:13
Clear
64°F / 18°C 61°F / 16°C 88% 30.06 in
(1018 mb)
W 9.2 mph
(W 15 kph)
- 10SM
01:53
Clear
64°F / 18°C 61°F / 16°C 88% 30.06 in
(1018 mb)
W 8.1 mph
(W 13 kph)
- 10SM
01:33
Clear
64°F / 18°C 61°F / 16°C 88% 30.06 in
(1018 mb)
W 8.1 mph
(W 13 kph)
- 10SM
01:13
Clear
64°F / 18°C 61°F / 16°C 88% 30.06 in
(1018 mb)
W 8.1 mph
(W 13 kph)
- 10SM
00:53
Clear
66°F / 19°C 61°F / 16°C 83% 30.06 in
(1018 mb)
W 9.2 mph
(W 15 kph)
- 10SM
00:33
Clear
68°F / 20°C 59°F / 15°C 73% 30.06 in
(1018 mb)
SSW 8.1 mph
(SSW 13 kph)
- 10SM
00:13
Clear
68°F / 20°C 59°F / 15°C 73% 30.06 in
(1018 mb)
SSW 9.2 mph
(SSW 15 kph)
- 10SM
Time Weather Temperature Dewpoint Humidity Pressure Winds Precip Visibility


Weather for websites

WeatherForYou.com, LLC is not responsible for any damages or problems caused by this service. Current weather conditions are obtained from the closest station including government and personal stations which may have varying degrees of accuracy. Weather forecasts are derived from the NOAA NDFD. Like all things, this site belongs to Jesus Christ... He just trusts us to maintain it. If you have any questions or comments email webmaster@weatherforyou.com

Copyright © 2015, WeatherForYou.com LLC. All rights reserved.